When you browse on this site, cookies collect data to enhance your experience and personalize the content and advertising you see.
Visit our Privacy Policy to learn more. By continuing to use the site, you agree to this use of cookies and data.
  • en Suisse
  • Liste des pays
  • À 7 jours
  • Température de l'eau
  • Carte météo
  • Widgets météo
  • user-avatar
    Se connecter

    Météo par heure à Tonton

    Ce jour, 29 Janvier, Mercredi

    Heure Température Précipitation Vent Pression Humidité
    00:00 +2°C° 0 mm 6 m/s 752 mmHg 83%
    01:00 +2°C° 0 mm 6 m/s 752 mmHg 84%
    02:00 +1°C° 0 mm 6 m/s 753 mmHg 85%
    03:00 +1°C° 0 mm 6 m/s 753 mmHg 86%
    04:00 +1°C° 0 mm 6 m/s 753 mmHg 87%
    05:00 +1°C° 0 mm 5 m/s 754 mmHg 87%
    06:00 +2°C° 0 mm 5 m/s 755 mmHg 88%
    07:00 +2°C° 0 mm 5 m/s 755 mmHg 88%
    08:00 +3°C° 0 mm 4 m/s 755 mmHg 88%
    09:00 +4°C° 0 mm 4 m/s 756 mmHg 88%
    10:00 +5°C° 0 mm 5 m/s 756 mmHg 84%
    11:00 +7°C° 0 mm 5 m/s 756 mmHg 80%
    12:00 +8°C° 0 mm 6 m/s 757 mmHg 76%
    13:00 +8°C° 0 mm 6 m/s 756 mmHg 78%
    14:00 +8°C° 0 mm 5 m/s 756 mmHg 79%
    15:00 +8°C° 0 mm 5 m/s 756 mmHg 81%
    16:00 +7°C° 0 mm 5 m/s 756 mmHg 84%
    17:00 +6°C° 0 mm 5 m/s 756 mmHg 87%
    18:00 +5°C° 0 mm 5 m/s 756 mmHg 90%
    19:00 +5°C° 0 mm 5 m/s 756 mmHg 91%
    20:00 +5°C° 0 mm 5 m/s 756 mmHg 92%
    21:00 +5°C° 0 mm 4 m/s 756 mmHg 93%
    22:00 +5°C° 0 mm 4 m/s 756 mmHg 94%
    23:00 +5°C° 0 mm 4 m/s 755 mmHg 95%

    Demain, 30 Janvier, Jeudi

    Heure Température Précipitation Vent Pression Humidité
    00:00 +5°C° 0 mm 3 m/s 755 mmHg 96%
    01:00 +7°C° 0 mm 3 m/s 754 mmHg 96%
    02:00 +7°C° 0 mm 3 m/s 754 mmHg 96%
    03:00 +6°C° 0 mm 4 m/s 753 mmHg 97%
    04:00 +7°C° 0 mm 4 m/s 752 mmHg 97%
    05:00 +7°C° 0 mm 4 m/s 751 mmHg 97%
    06:00 +7°C° 0 mm 4 m/s 751 mmHg 98%
    07:00 +8°C° 0 mm 4 m/s 750 mmHg 98%
    08:00 +9°C° 0 mm 3 m/s 750 mmHg 98%
    09:00 +10°C° 0 mm 3 m/s 750 mmHg 98%
    10:00 +10°C° 0 mm 3 m/s 749 mmHg 97%
    11:00 +11°C° 0 mm 4 m/s 749 mmHg 95%
    12:00 +12°C° 0 mm 4 m/s 749 mmHg 94%
    13:00 +12°C° 0 mm 5 m/s 749 mmHg 93%
    14:00 +13°C° 0 mm 6 m/s 749 mmHg 92%
    15:00 +12°C° 0 mm 7 m/s 749 mmHg 91%
    16:00 +11°C° 0 mm 7 m/s 750 mmHg 91%
    17:00 +11°C° 0 mm 7 m/s 750 mmHg 91%
    18:00 +10°C° 0 mm 7 m/s 751 mmHg 92%
    19:00 +9°C° 0 mm 7 m/s 751 mmHg 91%
    20:00 +9°C° 0 mm 7 m/s 752 mmHg 90%
    21:00 +8°C° 0 mm 7 m/s 752 mmHg 90%
    22:00 +8°C° 0 mm 7 m/s 753 mmHg 91%
    23:00 +8°C° 0 mm 6 m/s 753 mmHg 92%

    Après-demain, 31 Janvier, Vendredi

    Heure Température Précipitation Vent Pression Humidité
    00:00 +8°C° 0 mm 5 m/s 754 mmHg 92%
    01:00 +8°C° 0 mm 5 m/s 754 mmHg 92%
    02:00 +8°C° 0 mm 5 m/s 754 mmHg 92%
    03:00 +9°C° 0 mm 5 m/s 754 mmHg 92%
    04:00 +9°C° 0 mm 5 m/s 754 mmHg 92%
    05:00 +9°C° 0 mm 5 m/s 754 mmHg 92%
    06:00 +9°C° 0 mm 6 m/s 754 mmHg 92%
    07:00 +9°C° 0 mm 6 m/s 753 mmHg 92%
    08:00 +9°C° 0 mm 7 m/s 753 mmHg 92%
    09:00 +9°C° 0 mm 7 m/s 753 mmHg 92%
    10:00 +10°C° 0.4 mm 7 m/s 753 mmHg 93%
    11:00 +10°C° 0.4 mm 7 m/s 753 mmHg 93%
    12:00 +10°C° 0.4 mm 8 m/s 753 mmHg 94%
    13:00 +11°C° 0.3 mm 7 m/s 752 mmHg 94%
    14:00 +11°C° 0.3 mm 7 m/s 752 mmHg 94%
    15:00 +11°C° 0.3 mm 7 m/s 752 mmHg 93%
    16:00 +11°C° 0.1 mm 6 m/s 751 mmHg 94%
    17:00 +11°C° 0.1 mm 6 m/s 751 mmHg 95%
    18:00 +12°C° 0.1 mm 5 m/s 751 mmHg 96%
    19:00 +12°C° 2 mm 5 m/s 750 mmHg 96%
    20:00 +11°C° 2 mm 6 m/s 749 mmHg 96%
    21:00 +11°C° 2 mm 6 m/s 749 mmHg 96%
    22:00 +10°C° 0.6 mm 6 m/s 749 mmHg 95%
    23:00 +10°C° 0.6 mm 6 m/s 749 mmHg 93%

    1 Février, Samedi

    Heure Température Précipitation Vent Pression Humidité
    00:00 +9°C° 0.6 mm 6 m/s 749 mmHg 92%
    01:00 +9°C° 0.1 mm 7 m/s 749 mmHg 91%
    02:00 +9°C° 0.1 mm 7 m/s 750 mmHg 89%
    03:00 +7°C° 0.1 mm 8 m/s 750 mmHg 88%
    04:00 +6°C° 0 mm 8 m/s 750 mmHg 87%
    05:00 +5°C° 0 mm 7 m/s 751 mmHg 86%
    06:00 +4°C° 0 mm 7 m/s 751 mmHg 85%
    07:00 +4°C° 0 mm 7 m/s 752 mmHg 85%
    08:00 +4°C° 0 mm 8 m/s 753 mmHg 84%
    09:00 +4°C° 0 mm 8 m/s 754 mmHg 84%
    10:00 +5°C° 0 mm 9 m/s 754 mmHg 79%
    11:00 +6°C° 0 mm 10 m/s 755 mmHg 75%
    12:00 +7°C° 0 mm 11 m/s 755 mmHg 71%
    13:00 +6°C° 0 mm 10 m/s 756 mmHg 71%
    14:00 +6°C° 0 mm 10 m/s 756 mmHg 71%
    15:00 +6°C° 0 mm 10 m/s 757 mmHg 71%
    16:00 +5°C° 0 mm 9 m/s 757 mmHg 73%
    17:00 +4°C° 0 mm 7 m/s 758 mmHg 75%
    18:00 +4°C° 0 mm 6 m/s 758 mmHg 77%
    19:00 +3°C° 0 mm 6 m/s 759 mmHg 79%
    20:00 +3°C° 0 mm 6 m/s 759 mmHg 81%
    21:00 +3°C° 0 mm 5 m/s 759 mmHg 83%
    22:00 +5°C° 0 mm 5 m/s 759 mmHg 84%
    23:00 +5°C° 0 mm 4 m/s 759 mmHg 84%

    2 Février, Dimanche

    Heure Température Précipitation Vent Pression Humidité
    00:00 +5°C° 0 mm 4 m/s 759 mmHg 85%
    01:00 +5°C° 0.6 mm 6 m/s 758 mmHg 87%
    02:00 +6°C° 0.6 mm 7 m/s 756 mmHg 90%
    03:00 +6°C° 0.6 mm 9 m/s 755 mmHg 92%
    04:00 +8°C° 1.6 mm 9 m/s 754 mmHg 93%
    05:00 +10°C° 1.6 mm 9 m/s 753 mmHg 94%
    06:00 +12°C° 1.6 mm 9 m/s 752 mmHg 95%
    07:00 +11°C° 0.2 mm 9 m/s 753 mmHg 93%
    08:00 +11°C° 0.2 mm 8 m/s 754 mmHg 92%
    09:00 +11°C° 0.2 mm 8 m/s 755 mmHg 91%
    10:00 +11°C° 0 mm 8 m/s 756 mmHg 88%
    11:00 +11°C° 0 mm 7 m/s 757 mmHg 86%
    12:00 +11°C° 0 mm 7 m/s 757 mmHg 83%
    13:00 +11°C° 0 mm 6 m/s 758 mmHg 83%
    14:00 +11°C° 0 mm 6 m/s 758 mmHg 82%
    15:00 +12°C° 0 mm 5 m/s 758 mmHg 82%
    16:00 +11°C° 0 mm 4 m/s 758 mmHg 86%
    17:00 +10°C° 0 mm 4 m/s 759 mmHg 89%
    18:00 +10°C° 0 mm 3 m/s 759 mmHg 93%
    19:00 +9°C° 0 mm 3 m/s 759 mmHg 94%
    20:00 +9°C° 0 mm 3 m/s 759 mmHg 96%
    21:00 +9°C° 0 mm 3 m/s 759 mmHg 97%
    22:00 +10°C° 0.1 mm 4 m/s 758 mmHg 97%
    23:00 +10°C° 0.1 mm 4 m/s 758 mmHg 97%

    3 Février, Lundi

    Heure Température Précipitation Vent Pression Humidité
    00:00 +9°C° 0.1 mm 5 m/s 757 mmHg 97%
    01:00 +10°C° 0.1 mm 6 m/s 756 mmHg 96%
    02:00 +10°C° 0.1 mm 7 m/s 756 mmHg 94%
    03:00 +10°C° 0.1 mm 8 m/s 755 mmHg 93%
    04:00 +10°C° 0 mm 9 m/s 754 mmHg 93%
    05:00 +11°C° 0 mm 9 m/s 753 mmHg 92%
    06:00 +11°C° 0 mm 10 m/s 753 mmHg 92%
    07:00 +11°C° 0.1 mm 9 m/s 753 mmHg 91%
    08:00 +11°C° 0.1 mm 9 m/s 753 mmHg 89%
    09:00 +11°C° 0.1 mm 8 m/s 754 mmHg 88%
    10:00 +11°C° 0 mm 9 m/s 754 mmHg 86%
    11:00 +11°C° 0 mm 9 m/s 754 mmHg 84%
    12:00 +11°C° 0 mm 10 m/s 754 mmHg 83%
    13:00 +11°C° 0.1 mm 10 m/s 754 mmHg 81%
    14:00 +11°C° 0.1 mm 10 m/s 754 mmHg 79%
    15:00 +11°C° 0.1 mm 10 m/s 753 mmHg 77%
    16:00 +10°C° 0 mm 9 m/s 754 mmHg 78%
    17:00 +7°C° 0 mm 9 m/s 754 mmHg 79%
    18:00 +6°C° 0 mm 8 m/s 754 mmHg 79%
    19:00 +6°C° 0 mm 8 m/s 754 mmHg 79%
    20:00 +6°C° 0 mm 9 m/s 754 mmHg 79%
    21:00 +5°C° 0 mm 9 m/s 754 mmHg 78%
    22:00 +5°C° 0 mm 9 m/s 755 mmHg 78%
    23:00 +5°C° 0 mm 9 m/s 755 mmHg 77%
    Voir plus